Location: Katowice
(50.2611°N, 19.0242°E)
Time: 14:59:17
(UTC+02:00)

A-11 Canister half - Pass Details

Date: 25 July 2019
Orbit: 1526 x 1683 km, 47.3° (Epoch: 18 August)

Event Time Altitude Azimuth Distance (km) Brightness Sun altitude
Rises 20:40:50 0° 233° (SW) 4,922 11.9 -1.2°
Reaches altitude 10° 20:44:04 10° 229° (SW) 3,928 11.4 -1.6°
Maximum altitude 20:53:48 57° 155° (SSE) 1,894 9.3 -2.9°
Drops below altitude 10° 21:03:18 10° 80° (E) 3,836 10.7 -4.1°
Sets 21:06:25 0° 77° (ENE) 4,802 11.2 -4.5°
